Location: Westerlo
(51.0830°N, 4.9170°E)
Time: 01:11:11
(UTC+02:00)

ISS - Pass Details

Date: 27 July 2019
Orbit: 410 x 420 km, 51.6° (Epoch: 20 August)

Event Time Altitude Azimuth Distance (km) Brightness Sun altitude
Rises 23:26:36 0° 284° (WNW) 2,373 0.9 -13.4°
Reaches altitude 10° 23:28:43 10° 281° (W) 1,506 -0.3 -13.5°
Maximum altitude 23:32:03 64° 199° (SSW) 468 -3.7 -13.8°
Enters shadow 23:33:43 27° 125° (SE) 852 -2.7 -14.0°
